Regional Weather Roundup
Issued by NWS

Home | Current Version | Previous Version | Text Only | Print | Product List | Glossary Off
Versions: 1 2 3 4 5 6 7 8 9 10 11 12 13 14 15 16 17 18 19 20 21 22 23 24 25 26 27 28 29 30 31 32 33 34 35 36 37 38 39 40 41 42 43 44 45 46 47 48 49 50

000
ASUS44 KMEG 230110
RWRTN
TENNESSEE HOURLY STATE WEATHER ROUNDUP
NATIONAL WEATHER SERVICE MEMPHIS TN
800 PM CDT MON MAY 22 2017

TNZ002-004-019-021-049-052-054-088>092-230200-
WEST TENNESSEE

CITY           SKY/WX    TMP DP  RH WIND       PRES   REMARKS
MEMPHIS INTL   CLOUDY    69  60  73 NW3       29.95F
NWS MEMPHIS      N/A     67 N/A N/A MISG        N/A
JACKSON        CLOUDY    67  61  81 CALM      29.96R
DYERSBURG      CLOUDY    68  58  70 CALM      29.97S
COVINGTON      MOCLDY    68  61  77 NW3       29.95F
UNION CITY     CLEAR     70  55  60 CALM      29.95S
BOLIVAR        CLOUDY    66  61  82 CALM      29.95F
PARIS          CLEAR     66  59  77 CALM      29.97R
HUNTINGDON     CLEAR     66  57  72 CALM      29.96S
SELMER         CLOUDY    66  63  88 CALM      29.96R
SAVANNAH       MOCLDY    68  63  83 CALM      29.94F
$$

TNZ008-025-027-028-033-062-065-066-230200-
NORTH MIDDLE TENNESSEE

CITY           SKY/WX    TMP DP  RH WIND       PRES   REMARKS
NASHVILLE      CLOUDY    70  52  52 NE6       29.97F
PORTLAND       CLEAR     64  57  77 CALM      29.98S
CLARKSVILLE    CLOUDY    67  51  56 E6        29.98R
SMYRNA         CLOUDY    69  55  60 NE7       29.97F
COOKEVILLE     CLEAR     64  59  82 CALM      29.96F
GALLATIN       CLEAR     66  55  68 N5        30.00S
CROSSVILLE     CLOUDY    64  56  75 E5        30.00F
$$

TNZ061-075-076-078-094-096-097-230200-
SOUTH MIDDLE TENNESSEE

CITY           SKY/WX    TMP DP  RH WIND       PRES   REMARKS
FAYETTEVILLE   MOCLDY    70  61  73 CALM      29.95S
TULLAHOMA      CLEAR     68  57  68 NE3       29.97F
WINCHESTER     CLEAR     68  63  83 CALM      29.96F
MCMINNVILLE    CLEAR     66  61  82 NE3       29.97F
COLUMBIA       CLEAR     70  55  60 CALM      29.94S
SHELBYVILLE    CLEAR     68  59  73 NE5       29.95F
$$

TNZ017-018-042-046-047-230200-
NORTHEAST TENNESSEE

CITY           SKY/WX    TMP DP  RH WIND       PRES   REMARKS
TRI CITIES     MOCLDY    66  61  84 CALM      30.00S
ELIZABETHTON   DRIZZLE   64  63  94 CALM      30.00R
$$

TNZ012-013-036-069-073-074-230200-
CENTRAL EAST TENNESSEE

CITY           SKY/WX    TMP DP  RH WIND       PRES   REMARKS
KNOXVILLE      CLOUDY    70  62  76 NE5       29.96F
OAK RIDGE      CLOUDY    69  57  65 CALM      29.98S
DOWNTOWN KNOXV CLEAR     66  64  94 CALM      29.97S
GATLINBURG     MOCLDY    66  63  88 CALM      29.98S
MORRISTOWN     CLEAR     68  63  83 CALM      29.98F
JACKSBORO      CLEAR     64  55  72 CALM      30.02S
$$

TNZ083-085-099-230200-
SOUTHEAST TENNESSEE

CITY           SKY/WX    TMP DP  RH WIND       PRES   REMARKS
CHATTANOOGA    CLOUDY    74  63  68 CALM      29.95F
$$

SKY/WX REPORTED AS FAIR MEANS FEW OR NO CLOUDS BELOW
12 THOUSAND FEET.





USA.gov is the U.S. government's official web portal to all federal, state and local government web resources and services.